Somerville, NJ

9:20 PM EDT on March 22, 2017 (GMT -0400)
Somerset

Weather History for KSMQ - February, 2013

Change the Weather History Date:

Wednesday, February 20, 2013

  Actual Average Record
Temperature  
Mean Temperature 30 °F -  
Max Temperature 35 °F 43 °F 72 °F (1939)
Min Temperature 25 °F 23 °F -2 °F (1978)
Degree Days  
Heating Degree Days 34    
Moisture  
Dew Point 13 °F    
Average Humidity 50    
Maximum Humidity 61    
Minimum Humidity 41    
Precipitation  
Precipitation 0.00 in - - ()
Sea Level Pressure  
Sea Level Pressure 29.88 in    
Wind  
Wind Speed 9 mph (WNW)    
Max Wind Speed 17 mph    
Max Gust Speed 30 mph    
Visibility 10 miles    
Events      
Averages and records for this station are not official NWS values.
T = Trace of Precipitation, MM = Missing Value Source: NWS Daily Summary

Daily Weather History Graph

Daily Weather History Graph

Search for Another Location

Airport or City:

Trip Planner

Search our weather history database for the weather conditions in past years. The results will help you decide how hot, cold, wet, or windy it might be!

Date:

Astronomy

Feb. 20, 2013 Rise Set
Actual Time 6:45 AM EST 5:39 PM EST
Civil Twilight 6:17 AM EST 6:07 PM EST
Nautical Twilight 5:45 AM EST 6:39 PM EST
Astronomical Twilight 5:14 AM EST 7:11 PM EST
Moon 12:58 PM EST (2/20) 3:04 AM EST (2/20)
Length of Visible Light 11h 50m
Length of Day
10h 54m
Waxing Gibbous, 76% of the Moon is Illuminated
Feb 20
Waxing Gibbous
Feb 25
Full
Mar 4
Last Quarter
Mar 11
New
Mar 19
First Quarter

Hourly Weather History & Observations

Time (EST) Temp. Windchill Dew Point Humidity Pressure Visibility Wind Dir Wind Speed Gust Speed Precip Events Conditions
12:53 AM 35.1 °F - 23.0 °F 61% 29.75 in 10.0 mi Calm Calm - N/A   Mostly Cloudy
1:53 AM 34.0 °F 27.2 °F 19.9 °F 56% 29.77 in 10.0 mi West 8.1 mph 18.4 mph N/A   Partly Cloudy
2:53 AM 32.0 °F 24.8 °F 18.0 °F 56% 29.77 in 10.0 mi WNW 8.1 mph 20.7 mph N/A   Clear
3:53 AM 30.9 °F 24.3 °F 18.0 °F 59% 29.78 in 10.0 mi WNW 6.9 mph - N/A   Clear
4:53 AM 30.9 °F 22.2 °F 17.1 °F 57% 29.80 in 10.0 mi WNW 10.4 mph - N/A   Mostly Cloudy
5:53 AM 30.0 °F 22.4 °F 16.0 °F 56% 29.82 in 10.0 mi West 8.1 mph - N/A   Mostly Cloudy
6:53 AM 28.9 °F 20.4 °F 14.0 °F 54% 29.85 in 10.0 mi WNW 9.2 mph 20.7 mph N/A   Overcast
7:53 AM 28.9 °F 16.9 °F 14.0 °F 54% 29.88 in 10.0 mi NW 17.3 mph 29.9 mph N/A   Overcast
8:53 AM 28.9 °F 18.2 °F 12.0 °F 49% 29.89 in 10.0 mi WNW 13.8 mph 24.2 mph N/A   Overcast
9:53 AM 30.0 °F 20.0 °F 12.0 °F 47% 29.89 in 10.0 mi West 12.7 mph 23.0 mph N/A   Overcast
10:53 AM 30.9 °F 21.2 °F 12.0 °F 46% 29.89 in 10.0 mi West 12.7 mph 23.0 mph N/A   Overcast
11:53 AM 30.9 °F 22.8 °F 10.9 °F 43% 29.88 in 10.0 mi WNW 9.2 mph - N/A   Overcast
12:53 PM 30.0 °F 19.5 °F 10.0 °F 43% 29.88 in 10.0 mi West 13.8 mph 25.3 mph N/A   Overcast
1:53 PM 28.9 °F 19.2 °F 10.0 °F 45% 29.89 in 10.0 mi West 11.5 mph 26.5 mph N/A   Overcast
2:53 PM 30.2 °F 18.9 °F 10.4 °F 44% 29.89 in 10.0 mi WNW 16.1 mph 23.0 mph N/A   Overcast
3:53 PM 30.0 °F 20.0 °F 9.0 °F 41% 29.91 in 10.0 mi WNW 12.7 mph 29.9 mph N/A   Overcast
4:53 PM 28.9 °F 19.8 °F 10.9 °F 47% 29.92 in 10.0 mi West 10.4 mph 23.0 mph N/A   Overcast
5:53 PM 28.0 °F 20.8 °F 10.9 °F 49% 29.94 in 10.0 mi Variable 6.9 mph - N/A   Overcast
6:53 PM 28.9 °F 18.2 °F 10.0 °F 45% 29.97 in 10.0 mi WNW 13.8 mph 23.0 mph N/A   Overcast
7:53 PM 28.0 °F 19.3 °F 10.0 °F 47% 29.99 in 10.0 mi WNW 9.2 mph 27.6 mph N/A   Overcast
8:53 PM 27.0 °F 16.7 °F 9.0 °F 47% 29.98 in 10.0 mi WNW 11.5 mph 23.0 mph N/A   Clear
9:53 PM 26.6 °F 22.6 °F 8.6 °F 47% 29.99 in 10.0 mi Variable 3.5 mph - N/A   Clear
11:53 PM 25.0 °F 13.1 °F 8.1 °F 49% 30.01 in 10.0 mi NW 13.8 mph 20.7 mph N/A   Scattered Clouds